[[{"header":{"parameterUnit":"m.s-1","parameterCategory":1,"la1":30.2991,"la2":30.254,"lo1":-89.0895,"lo2":-89.0444,"dy":0.0017,"dx":0.0017,"nx":28,"ny":28,"refTime":"2025-08-02T21:00:00:Z","depth":0,"parameterNumber":2,"parameterNumberName":"U-component_of_WINDS"},"data":[0,0,0,0,0,0,0,0,0,0,0,0,0,0,0,0,0,0,0,0,0,0,0,0,0,0,0,0,0,0,0,0,0,0,0,0,0,0,0,0,0,0,0,0,0,0,0,0,0,0,0,0,0,0,0,0,0,0,2.0332,2.0333,0,2.0405,2.0406,2.0407,2.0403,2.0402,2.0401,2.04,2.0473,2.0475,2.0478,0,0,0,0,0,0,0,0,0,0,0,0,0,2.0186,2.0189,2.0332,2.0333,2.0334,2.0405,2.0406,2.0407,2.0403,2.0402,2.04,2.0399,2.0472,2.0475,2.0479,0,0,0,0,0,0,0,0,0,0,0,0,0,2.0253,2.019,2.0332,2.034,2.0342,2.0405,2.0406,2.0407,2.0403,2.0402,2.04,2.0399,2.0471,2.0475,2.0479,2.0538,0,0,2.0492,2.0494,0,0,0,0,0,0,0,0,2.0249,2.0259,2.0338,2.034,2.0342,2.0393,2.0381,2.0451,2.0404,2.038,2.04,2.0398,2.0447,2.0454,2.0471,2.0541,2.0544,2.0493,2.0496,2.0497,2.0499,0,0,0,0,0,0,0,2.0245,2.0255,2.0361,2.0339,2.0341,2.034,2.0348,2.0395,2.0421,2.0382,2.0382,2.0391,2.0448,2.0466,2.0472,2.0545,2.0493,2.0497,2.0499,2.0501,2.0667,2.0669,0,0,0,0,0,0,2.0239,2.0252,2.0358,2.0363,2.0291,2.0344,2.0352,2.0378,2.0421,2.0426,2.0392,2.039,2.046,2.0467,2.0475,2.0546,2.0497,2.0501,2.0504,2.0666,2.0668,2.067,0,0,0,0,0,0,2.0235,2.0248,2.0355,2.0307,2.0321,2.0348,2.0377,2.0381,2.0399,2.0429,2.0433,2.0406,2.0459,2.0469,2.0522,2.0548,2.0503,2.0507,2.0663,2.0666,2.0669,2.0688,0,0,0,0,0,0,2.0231,2.0247,2.027,2.0308,2.0323,2.0402,2.0379,2.0383,2.0407,2.0405,2.0443,2.0448,2.0458,2.0516,2.0527,2.0553,2.0511,2.0661,2.0665,2.0668,2.0685,2.0691,2.0696,0,0,0,0,0,2.0226,2.0272,2.0271,2.0284,2.0353,2.0404,2.0412,2.0424,2.0409,2.0432,2.0451,2.0446,2.0544,2.0521,2.0533,2.0562,2.066,2.0664,2.0668,2.0683,2.069,2.0696,0,0,0,0,0,0,2.0235,2.0277,2.0276,2.0336,2.0367,2.0403,2.0432,2.0432,2.0466,2.0463,2.0476,2.0485,2.0538,2.0556,2.0529,2.0621,2.06,2.0606,2.0607,2.0614,2.062,2.0614,2.0515,0,0,0,0,0,2.0245,2.0283,2.0317,2.0367,2.0382,2.0405,2.0427,2.0434,2.0465,2.0478,2.0501,2.0531,2.0568,2.0593,2.0629,2.0689,2.0696,2.0714,2.072,2.0724,2.0729,2.0762,2.077,2.0683,2.0683,2.0683,0,0,2.0263,2.0291,2.0314,2.0369,2.0393,2.0432,2.0415,2.0457,2.0486,2.0484,2.0536,2.0554,2.0588,2.0645,2.0671,2.0661,2.0755,2.0729,2.0733,2.0735,2.0767,2.0775,2.0782,2.0686,2.0685,2.0685,0,0,2.0317,2.0343,2.0387,2.0412,2.0449,2.0464,2.0474,2.0511,2.0523,2.0576,2.0575,2.0609,2.0674,2.0698,2.0719,2.0784,2.0781,2.0795,2.0823,2.0855,2.0861,2.0868,2.089,2.0897,2.0801,2.0801,2.0801,0,2.0336,2.0395,2.0409,2.0451,2.0475,2.0477,2.052,2.0544,2.0591,2.0607,2.0595,2.0676,2.07,2.0762,2.0778,2.0795,2.0807,2.079,2.086,2.0866,2.0872,2.0893,2.0901,2.0802,2.0802,2.0802,2.0802,0,2.0415,2.0457,2.0487,2.0533,2.0561,2.0604,2.0623,2.065,2.0654,2.067,2.0724,2.0752,2.0794,2.081,2.0814,2.0873,2.0865,2.0857,2.0835,2.0881,2.0901,2.0909,2.0804,2.0804,2.0803,2.0803,0,0,2.0475,2.053,2.0541,2.0562,2.0603,2.0635,2.0678,2.072,2.0741,2.0774,2.081,2.0865,2.0858,2.0881,2.0889,2.0917,2.0965,2.0905,2.0906,2.0914,2.103,2.1035,2.1045,2.0964,2.0966,2.0967,2.1027,0,2.0533,2.061,2.0624,2.069,2.0728,2.0731,2.0768,2.0798,2.0814,2.0848,2.0866,2.0904,2.0892,2.0906,2.0934,2.0953,2.0989,2.095,2.0996,2.0998,2.0986,2.1055,2.1061,2.1116,2.1035,2.1036,2.1037,0,2.061,2.0645,2.0716,2.0753,2.0769,2.0802,2.0842,2.0875,2.0908,2.0918,2.0945,2.095,2.0994,2.0972,2.1033,2.1006,2.1026,2.1039,2.1041,2.1045,2.1019,2.1059,2.1134,2.1141,2.105,2.1049,2.1048,0,2.0645,2.071,2.0761,2.0779,2.0824,2.0847,2.0867,2.0899,2.0923,2.0957,2.0973,2.1012,2.1033,2.1063,2.1078,2.1061,2.1138,2.1117,2.1146,2.1146,2.116,2.1159,2.1238,2.1176,2.1176,2.1176,2.1176,0,2.0706,2.0749,2.0777,2.0808,2.0856,2.0872,2.0919,2.0938,2.0967,2.1001,2.1006,2.1038,2.1057,2.1091,2.1104,2.1151,2.1161,2.117,2.1172,2.1168,2.1167,2.1181,2.1177,2.1178,2.1178,2.1177,2.1177,0,2.0753,2.0774,2.0829,2.0868,2.0878,2.0912,2.0944,2.0974,2.0991,2.1034,2.1045,2.1072,2.1113,2.1131,2.1182,2.119,2.1244,2.1245,2.1233,2.1233,2.1261,2.1257,2.1349,2.1362,2.1294,2.1294,2.1295,0,2.079,2.0823,2.0866,2.0889,2.091,2.0948,2.0973,2.099,2.1016,2.1057,2.1082,2.1123,2.1157,2.1222,2.1246,2.1284,2.1285,2.1315,2.129,2.1286,2.1284,2.1281,2.1284,2.1318,2.1319,2.1319,2.132,0,2.0853,2.0862,2.0899,2.0939,2.0969,2.1001,2.1033,2.1052,2.1074,2.1103,2.1145,2.1172,2.1224,2.1264,2.1305,2.1324,2.1326,2.1328,2.1336,2.1332,2.1323,2.1327,2.1243,2.1325,2.1324,2.1324,2.1324,2.1323,2.0896,2.0925,2.0959,2.1,2.1026,2.1055,2.1085,2.1106,2.1142,2.1186,2.1195,2.1239,2.1272,2.1327,2.1348,2.1383,2.1376,2.1388,2.1391,2.1394,2.1395,2.1319,2.1391,2.1391,2.139,2.139,2.139,0,2.0958,2.0981,2.1018,2.1062,2.1094,2.1094,2.1129,2.1155,2.1195,2.1226,2.126,2.1308,2.1348,2.1375,2.1415,2.1438,2.144,2.1448,2.1445,2.145,2.14,2.1388,2.1446,2.1446,2.1446,2.1446,2.1446,2.1446,2.0994,2.1043,2.1057,2.1119,2.1141,2.1186,2.1206,2.1233,2.1258,2.1312,2.1346,2.1363,2.1393,2.1435,2.1472,2.1479,2.1492,2.1501,2.1507,2.1459,2.1453,2.1448,2.1436,2.1504,2.1504,2.1554,2.1555,2.1555]},{"header":{"parameterUnit":"m.s-1","parameterCategory":1,"la1":30.2991,"la2":30.254,"lo1":-89.0895,"lo2":-89.0444,"dy":0.0017,"dx":0.0017,"nx":28,"ny":28,"refTime":"2025-08-02T21:00:00:Z","depth":0,"parameterNumber":3,"parameterNumberName":"V-component_of_WINDS"},"data":[0,0,0,0,0,0,0,0,0,0,0,0,0,0,0,0,0,0,0,0,0,0,0,0,0,0,0,0,0,0,0,0,0,0,0,0,0,0,0,0,0,0,0,0,0,0,0,0,0,0,0,0,0,0,0,0,0,0,0.9551,0.955,0,0.9453,0.9452,0.9451,0.9412,0.9412,0.9412,0.9413,0.9308,0.9305,0.9302,0,0,0,0,0,0,0,0,0,0,0,0,0,0.97,0.9698,0.9552,0.955,0.9549,0.9453,0.9452,0.9451,0.9412,0.9412,0.9412,0.9413,0.9309,0.9305,0.9302,0,0,0,0,0,0,0,0,0,0,0,0,0,0.9622,0.9697,0.9552,0.9518,0.9514,0.9454,0.9452,0.945,0.9412,0.9412,0.9412,0.9413,0.931,0.9306,0.9301,0.9265,0,0,0.9287,0.9285,0,0,0,0,0,0,0,0,0.9626,0.9617,0.9524,0.952,0.9516,0.9445,0.9466,0.9388,0.9412,0.9451,0.9413,0.9413,0.9353,0.9345,0.9326,0.9261,0.9256,0.9287,0.9284,0.9282,0.9281,0,0,0,0,0,0,0,0.9632,0.9621,0.9512,0.9523,0.9518,0.9506,0.9496,0.9451,0.9401,0.9447,0.9444,0.9433,0.9351,0.933,0.9323,0.9254,0.9287,0.9283,0.928,0.9278,0.9152,0.9151,0,0,0,0,0,0,0.9644,0.9625,0.9516,0.951,0.9573,0.9503,0.9491,0.9467,0.9401,0.9391,0.9433,0.9432,0.9338,0.9328,0.9319,0.9271,0.9282,0.9278,0.9275,0.9153,0.9152,0.9151,0,0,0,0,0,0,0.9647,0.9634,0.952,0.9567,0.9551,0.95,0.9474,0.9465,0.9445,0.939,0.9381,0.9421,0.9338,0.9325,0.9279,0.9267,0.9276,0.9272,0.9153,0.9152,0.9151,0.9175,0,0,0,0,0,0,0.9651,0.9636,0.9623,0.9567,0.9549,0.9483,0.9473,0.9463,0.9437,0.9435,0.9377,0.9368,0.9337,0.9286,0.9274,0.9261,0.9268,0.9154,0.9153,0.9152,0.9176,0.9175,0.9175,0,0,0,0,0,0.9657,0.9633,0.9623,0.961,0.9532,0.9482,0.9472,0.9438,0.9437,0.9422,0.9387,0.937,0.927,0.9281,0.9268,0.9253,0.9155,0.9153,0.9152,0.9176,0.9175,0.9175,0,0,0,0,0,0,0.9689,0.9626,0.9613,0.9571,0.9532,0.9476,0.9457,0.9439,0.9399,0.9398,0.9357,0.9344,0.93,0.9272,0.9285,0.9213,0.9211,0.9207,0.9233,0.9233,0.9233,0.924,0.9264,0,0,0,0,0,0.9691,0.9658,0.9603,0.9571,0.9553,0.9508,0.9485,0.9462,0.942,0.9403,0.9365,0.9323,0.9282,0.9256,0.9216,0.9171,0.9157,0.9154,0.9154,0.9154,0.9151,0.9123,0.912,0.9146,0.9146,0.9146,0,0,0.9696,0.9657,0.9638,0.9577,0.9544,0.9508,0.9495,0.9458,0.943,0.9397,0.9351,0.9321,0.9271,0.9225,0.9203,0.92,0.914,0.9152,0.9153,0.9149,0.9121,0.9118,0.9116,0.9145,0.9146,0.9146,0,0,0.9685,0.9653,0.9622,0.9589,0.954,0.951,0.9503,0.9448,0.9427,0.938,0.9354,0.932,0.9251,0.9216,0.9189,0.9163,0.9144,0.9151,0.915,0.9123,0.9121,0.9119,0.9107,0.9104,0.9147,0.9148,0.9148,0,0.9696,0.9642,0.9608,0.9572,0.9544,0.9514,0.948,0.945,0.939,0.9371,0.9369,0.928,0.9245,0.9189,0.9182,0.9163,0.9151,0.9157,0.9124,0.9122,0.9119,0.9108,0.9104,0.9149,0.9148,0.9148,0.9148,0,0.9657,0.962,0.9601,0.9544,0.9514,0.948,0.9438,0.9412,0.9391,0.9361,0.9312,0.9268,0.9217,0.9202,0.9182,0.9142,0.9142,0.9133,0.9129,0.9118,0.9107,0.9102,0.915,0.915,0.9149,0.9149,0,0,0.9665,0.9589,0.9582,0.9555,0.9497,0.9467,0.943,0.9381,0.9358,0.9317,0.9283,0.9225,0.9215,0.9185,0.9159,0.9136,0.9115,0.9129,0.9127,0.9126,0.9066,0.9073,0.9068,0.9103,0.9102,0.9101,0.907,0,0.9646,0.958,0.9546,0.9494,0.9457,0.9427,0.9394,0.9354,0.9324,0.9287,0.9253,0.9212,0.9204,0.9185,0.916,0.9123,0.9102,0.9125,0.9069,0.9067,0.9081,0.9063,0.907,0.9043,0.9065,0.9064,0.9064,0,0.9615,0.9574,0.9518,0.9463,0.9446,0.9418,0.9369,0.9335,0.9287,0.9267,0.9232,0.9207,0.9164,0.9165,0.9103,0.912,0.9094,0.9072,0.907,0.9063,0.9064,0.9053,0.9033,0.9029,0.9057,0.9057,0.9058,0,0.9624,0.9555,0.9512,0.949,0.9425,0.9405,0.9376,0.933,0.9302,0.9258,0.9239,0.9191,0.9164,0.9126,0.9088,0.9092,0.903,0.9027,0.9009,0.901,0.8997,0.8998,0.8972,0.8983,0.8984,0.8984,0.8984,0,0.9605,0.9572,0.9515,0.9489,0.9449,0.941,0.9371,0.934,0.9298,0.9264,0.9234,0.9201,0.9153,0.9114,0.9083,0.9036,0.9024,0.9005,0.8997,0.9007,0.9009,0.8989,0.8989,0.8982,0.8983,0.8983,0.8983,0,0.9609,0.957,0.9521,0.9463,0.9447,0.942,0.9369,0.9341,0.9309,0.9265,0.9252,0.9202,0.9154,0.9112,0.9048,0.9027,0.8978,0.8969,0.8994,0.899,0.8974,0.8975,0.8932,0.8923,0.8943,0.8943,0.8943,0,0.96,0.9573,0.9512,0.9486,0.9459,0.9419,0.9389,0.9349,0.9319,0.9262,0.924,0.919,0.9148,0.9072,0.9028,0.8978,0.8967,0.8955,0.8959,0.8969,0.8964,0.8966,0.8962,0.8955,0.8955,0.8955,0.8955,0,0.9586,0.9567,0.9527,0.9479,0.9446,0.9406,0.9365,0.9346,0.9297,0.9265,0.9216,0.9183,0.9117,0.9067,0.9012,0.8981,0.8959,0.8954,0.8947,0.8956,0.8971,0.8961,0.8993,0.8955,0.8955,0.8955,0.8955,0.8955,0.9581,0.9555,0.9507,0.9463,0.9428,0.939,0.936,0.9323,0.9282,0.9226,0.9204,0.9153,0.9104,0.9028,0.8996,0.8954,0.895,0.8941,0.8938,0.8936,0.8936,0.8979,0.8944,0.8944,0.8944,0.8944,0.8944,0,0.9565,0.9532,0.9491,0.9435,0.9399,0.9383,0.9336,0.9306,0.9262,0.9218,0.9177,0.9119,0.9069,0.9021,0.8968,0.8944,0.8932,0.8931,0.8932,0.8924,0.8944,0.8954,0.8941,0.8941,0.8941,0.8941,0.8941,0.8941,0.9552,0.9506,0.9481,0.9417,0.9383,0.9334,0.9308,0.9272,0.9237,0.9173,0.9132,0.9101,0.9054,0.8998,0.895,0.8937,0.8918,0.8919,0.8903,0.8922,0.8923,0.8924,0.8934,0.8916,0.8916,0.8887,0.8887,0.8886]}]]